STARLINK-32404, 61710

Orbit data source: Space-Track

STARLINK-32404, 61710 is a payload satellite owned by SpaceX/Seattle (US) in LEO that was launched on Wed, 30 Oct 2024 UTC via an FALCON 9 launch vehicle from the Air Force Eastern Test Range (AFETR). Payload-class satellites include a variety of spacecraft equipped with specific instruments for various scientific and technological missions. These include communications satellites like Starlink; space stations such as the ISS; scientific satellites like the Hubble; Earth observation satellites from companies like Planet Labs, Umbra, and HawkEye 360; GPS; miniature CubeSats for education and research; and military/defense satellites.

Loading next visibility...
Identifier
61710, 2024-196D
Orbit
LEO
Last TLE update
21 hours ago
Origin
Manufacturer
SpaceX/Seattle
Mission
Operational Commercial Communications
Bus & Motor
STARLINK V2M, Unknown motor
Mass
730 kg wet, ~700 kg dry
Launch date (UTC)
2024-10-30 (8 months ago)
Launch vehicle
FALCON 9
Launch site
Air Force Eastern Test Range (AFETR)
Object type
Payload
Rocket body
Debris
Shape & HBR
Box + 2 Pan, 29 m
Radar Cross Section
36.964 m², Large (>1 m²)

Expand to show TLE details & history

TLE from 21 hours ago
0 STARLINK-32404
1 61710U 24196D   25181.50941913  .00000690  00000-0  35410-4 0  9998
2 61710  53.1596 192.9092 0001186  73.8394 286.2737 15.30197950 38543
Epoch: 2025-06-30T12:13Z
TLE epoch observation values (Epoch: 2025-06-30T12:13:33.812Z)
Latitude
-0.00006°
Longitude
90.70007°
Altitude
475.893 km
Speed
7.629 km/s
True Right ascension
12h 51m 38s
True Declination
0° 00' 00"
Sunlit
Object was in daylight at epoch
Visualization orbit readout
Latitude
11.2291°
Longitude
-101.89102°
Altitude
475.343 km
Speed
7.63 km/s
Apparent Right ascension
03h 08m 06s
Apparent Declination
-29° 36' 24"
Sunlit
Object is in daylight
Visualization observer readout
Local Sidereal Time
20:57:49
Azimuth
112.168° ESE
Elevation
-20.3°
Doppler factor
1
Orbital elements
Apogee altitude
476.291 km
Perigee altitude
474.665 km
Semi-major axis
6,853.615 km
Eccentricity
0.00012
Inclination
53.1596°
RAAN
192.9092°
Arg. of periapsis
73.8394°
True anomaly
Unknown
Mean anomaly
286.2737°
Eccentric anomaly
Unknown
Mean motion
3.82528 °/min
Orbital period
94.11 mins
BSTAR
0.00003541
Loading maneuver chart data...
Loading SW <> Apogee altitude chart data...
Loading historical data...
Loading historical data...
Loading historical data...
Loading historical data...
Loading historical data...
Loading historical data...
Loading historical data...

STARLINK-32404 Visibility forecast

Observer location: undefined°, undefined°

Span
Click to sort rows by Start time (UTC) header in descending order
Start Az.
Max El. time (UTC)
Max El. Az.
Max El.
End time (UTC)
End Az.
6 mins2025-07-01 10:41:33.640Z297.717° NW2025-07-01 10:44:33.640Z202.994° SW37.909°2025-07-01 10:47:33.640Z148.03° SSE
5 mins2025-07-02 03:37:33.640Z252.943° W2025-07-02 03:39:33.640Z310.151° NW38.515°2025-07-02 03:42:33.640Z38.867° NE
4 mins2025-07-02 08:34:33.640Z343.22° N2025-07-02 08:36:33.640Z24.524° NE20.394°2025-07-02 08:38:33.640Z66.552° ENE
|